| time (UTC) | temp F | wind direction | speed MPH | gust MPH | rain 1hr in | rain 24hr in | rain mn in | humidity % | barometer mb |
| 20260503185655 | 51 | 166 | 0.0 | 0.0 | 0.00 | 0.00 | 0.00 | 78 | 1013.9 |
| 20260503185150 | 51 | 192 | 0.0 | 0.0 | 0.00 | 0.00 | 0.00 | 76 | 1013.9 |
| 20260503184645 | 51 | 161 | 0.0 | 0.0 | 0.00 | 0.00 | 0.00 | 77 | 1013.8 |
| 20260503184142 | 51 | 159 | 0.0 | 0.0 | 0.00 | 0.00 | 0.00 | 78 | 1014.1 |
| 20260503183638 | 51 | 173 | 0.0 | 0.0 | 0.00 | 0.00 | 0.00 | 77 | 1013.9 |
| 20260503183136 | 51 | 154 | 0.0 | 0.0 | 0.00 | 0.00 | 0.00 | 78 | 1014.2 |
| 20260503182634 | 51 | 171 | 0.0 | 0.0 | 0.00 | 0.00 | 0.00 | 77 | 1014.1 |
| 20260503182132 | 52 | 230 | 0.0 | 0.0 | 0.00 | 0.00 | 0.00 | 75 | 1014.3 |
| 20260503181629 | 52 | 208 | 0.0 | 2.0 | 0.00 | 0.00 | 0.00 | 72 | 1014.4 |
| 20260503181126 | 53 | 285 | 1.0 | 2.0 | 0.00 | 0.00 | 0.00 | 68 | 1014.5 |
| 20260503180623 | 55 | 189 | 0.0 | 1.0 | 0.00 | 0.00 | 0.00 | 62 | 1014.1 |
| 20260503180121 | 57 | 188 | 0.0 | 1.0 | 0.00 | 0.00 | 0.00 | 56 | 1014.2 |
| 20260503175617 | 58 | 96 | 0.0 | 0.0 | 0.00 | 0.00 | 0.00 | 55 | 1014.1 |
| 20260503175114 | 58 | 220 | 0.0 | 0.0 | 0.00 | 0.00 | 0.00 | 56 | 1013.9 |
| 20260503174611 | 58 | 129 | 0.0 | 1.0 | 0.00 | 0.00 | 0.00 | 54 | 1014.1 |
| 20260503174108 | 59 | 239 | 0.0 | 1.0 | 0.00 | 0.00 | 0.00 | 55 | 1014.4 |
| 20260503173603 | 59 | 71 | 0.0 | 0.0 | 0.00 | 0.00 | 0.00 | 56 | 1014.3 |
| 20260503173100 | 59 | 144 | 0.0 | 0.0 | 0.00 | 0.00 | 0.00 | 55 | 1014.5 |
| 20260503172557 | 59 | 267 | 1.0 | 2.0 | 0.00 | 0.00 | 0.00 | 55 | 1014.6 |
| 20260503172054 | 59 | 180 | 0.0 | 0.0 | 0.00 | 0.00 | 0.00 | 55 | 1014.6 |
| 20260503171550 | 60 | 170 | 1.0 | 3.0 | 0.00 | 0.00 | 0.00 | 53 | 1014.5 |
| 20260503171048 | 60 | 16 | 1.0 | 2.0 | 0.00 | 0.00 | 0.00 | 53 | 1014.7 |
| 20260503170544 | 60 | 206 | 0.0 | 0.0 | 0.00 | 0.00 | 0.00 | 53 | 1014.8 |
| 20260503150930 | 56 | 192 | 0.0 | 1.0 | 0.00 | 0.00 | 0.00 | 55 | 1016.0 |
| 20260503150426 | 57 | 154 | 0.0 | 0.0 | 0.00 | 0.00 | 0.00 | 55 | 1015.9 |
| 20260503131314 | 50 | 166 | 0.0 | 0.0 | 0.00 | 0.00 | 0.00 | 61 | 1016.3 |
| 20260503130812 | 49 | 143 | 0.0 | 0.0 | 0.00 | 0.00 | 0.00 | 62 | 1016.2 |
| 20260503130309 | 49 | 174 | 1.0 | 2.0 | 0.00 | 0.00 | 0.00 | 62 | 1016.1 |
| 20260503110703 | 41 | 171 | 0.0 | 0.0 | 0.00 | 0.00 | 0.00 | 72 | 1015.7 |
| 20260503110200 | 41 | 151 | 0.0 | 0.0 | 0.00 | 0.00 | 0.00 | 73 | 1015.6 |
| 20260503100126 | 40 | 179 | 0.0 | 0.0 | 0.00 | 0.00 | 0.00 | 74 | 1015.5 |
| 20260503081510 | 39 | 158 | 0.0 | 0.0 | 0.00 | 0.00 | 0.00 | 76 | 1015.6 |
| 20260503081007 | 39 | 160 | 0.0 | 0.0 | 0.00 | 0.00 | 0.00 | 76 | 1015.6 |
| 20260503080503 | 39 | 158 | 0.0 | 0.0 | 0.00 | 0.00 | 0.00 | 76 | 1015.7 |
| 20260503072939 | 39 | 148 | 0.0 | 0.0 | 0.00 | 0.00 | 0.00 | 77 | 1015.5 |
| 20260503072431 | 39 | 147 | 0.0 | 0.0 | 0.00 | 0.00 | 0.00 | 77 | 1015.6 |
| 20260503071928 | 39 | 147 | 0.0 | 0.0 | 0.00 | 0.00 | 0.00 | 76 | 1015.6 |
| 20260503071425 | 39 | 147 | 0.0 | 0.0 | 0.00 | 0.00 | 0.00 | 76 | 1016.0 |
| 20260503070921 | 39 | 147 | 0.0 | 0.0 | 0.00 | 0.00 | 0.00 | 75 | 1015.8 |
| 20260503070418 | 39 | 147 | 0.0 | 0.0 | 0.00 | 0.00 | 0.00 | 75 | 1015.6 |
| 20260503060339 | 39 | 147 | 0.0 | 0.0 | 0.00 | 0.00 | 0.00 | 78 | 1016.2 |
| 20260503054826 | 39 | 147 | 0.0 | 0.0 | 0.00 | 0.00 | 0.00 | 77 | 1016.3 |
| 20260503054321 | 39 | 147 | 0.0 | 0.0 | 0.00 | 0.00 | 0.00 | 78 | 1016.5 |
| 20260503053819 | 39 | 147 | 0.0 | 0.0 | 0.00 | 0.00 | 0.00 | 77 | 1016.5 |
| 20260503053318 | 39 | 147 | 0.0 | 0.0 | 0.00 | 0.00 | 0.00 | 77 | 1016.3 |
| 20260503052814 | 39 | 147 | 0.0 | 0.0 | 0.00 | 0.00 | 0.00 | 77 | 1016.5 |
| 20260503052311 | 39 | 147 | 0.0 | 0.0 | 0.00 | 0.00 | 0.00 | 78 | 1016.4 |
| 20260503051807 | 39 | 147 | 0.0 | 0.0 | 0.00 | 0.00 | 0.00 | 79 | 1016.4 |
| 20260503051304 | 39 | 147 | 0.0 | 0.0 | 0.00 | 0.00 | 0.00 | 79 | 1016.3 |
| 20260503050801 | 39 | 147 | 0.0 | 0.0 | 0.00 | 0.00 | 0.00 | 79 | 1016.4 |
| 20260503050257 | 39 | 147 | 0.0 | 0.0 | 0.00 | 0.00 | 0.00 | 79 | 1016.5 |
| 20260503045755 | 39 | 147 | 0.0 | 0.0 | 0.00 | 0.00 | 0.00 | 80 | 1016.5 |
| 20260503045252 | 39 | 147 | 0.0 | 0.0 | 0.00 | 0.00 | 0.00 | 79 | 1016.4 |
| 20260503044748 | 39 | 147 | 0.0 | 0.0 | 0.00 | 0.00 | 0.00 | 80 | 1016.5 |
| 20260503044245 | 39 | 147 | 0.0 | 0.0 | 0.00 | 0.00 | 0.00 | 80 | 1016.5 |
| 20260503043743 | 39 | 147 | 0.0 | 0.0 | 0.00 | 0.00 | 0.00 | 81 | 1016.5 |
| 20260503043239 | 39 | 146 | 0.0 | 0.0 | 0.00 | 0.00 | 0.00 | 82 | 1016.7 |
| 20260503042735 | 39 | 146 | 0.0 | 0.0 | 0.00 | 0.00 | 0.00 | 82 | 1016.4 |
| 20260503042232 | 39 | 146 | 0.0 | 0.0 | 0.00 | 0.00 | 0.00 | 82 | 1016.6 |
| 20260503041727 | 39 | 146 | 0.0 | 0.0 | 0.00 | 0.00 | 0.00 | 81 | 1016.4 |
| 20260503041225 | 39 | 146 | 0.0 | 0.0 | 0.00 | 0.00 | 0.00 | 82 | 1016.4 |
| 20260503040723 | 39 | 146 | 0.0 | 0.0 | 0.00 | 0.00 | 0.00 | 83 | 1016.5 |
| 20260503040220 | 39 | 146 | 0.0 | 0.0 | 0.00 | 0.00 | 0.00 | 82 | 1016.4 |
| 20260503035717 | 39 | 146 | 0.0 | 0.0 | 0.00 | 0.00 | 0.00 | 82 | 1016.4 |
| 20260503035215 | 38 | 146 | 0.0 | 0.0 | 0.00 | 0.00 | 0.00 | 82 | 1016.7 |
| 20260503034712 | 39 | 146 | 0.0 | 0.0 | 0.00 | 0.00 | 0.00 | 81 | 1016.6 |
| 20260503034209 | 39 | 146 | 0.0 | 0.0 | 0.00 | 0.00 | 0.00 | 80 | 1016.6 |
| 20260503033706 | 39 | 146 | 0.0 | 0.0 | 0.00 | 0.00 | 0.00 | 80 | 1016.4 |
| 20260503033203 | 39 | 146 | 0.0 | 0.0 | 0.00 | 0.00 | 0.00 | 79 | 1016.6 |
| 20260503032701 | 39 | 146 | 0.0 | 0.0 | 0.00 | 0.00 | 0.00 | 79 | 1016.5 |
| 20260503032200 | 39 | 146 | 0.0 | 0.0 | 0.00 | 0.00 | 0.00 | 78 | 1016.5 |
| 20260503031657 | 40 | 146 | 0.0 | 0.0 | 0.00 | 0.00 | 0.00 | 77 | 1016.5 |
| 20260503031155 | 40 | 146 | 0.0 | 0.0 | 0.00 | 0.00 | 0.00 | 76 | 1016.6 |
| 20260503030650 | 40 | 146 | 0.0 | 0.0 | 0.00 | 0.00 | 0.00 | 76 | 1016.6 |
| 20260503030147 | 41 | 146 | 0.0 | 0.0 | 0.00 | 0.00 | 0.00 | 75 | 1016.6 |
| 20260503025644 | 41 | 146 | 0.0 | 0.0 | 0.00 | 0.00 | 0.00 | 73 | 1016.6 |
| 20260503025142 | 41 | 146 | 0.0 | 0.0 | 0.00 | 0.00 | 0.00 | 74 | 1016.7 |
| 20260503024638 | 41 | 146 | 0.0 | 0.0 | 0.00 | 0.00 | 0.00 | 73 | 1016.7 |
| 20260503024136 | 42 | 146 | 0.0 | 0.0 | 0.00 | 0.00 | 0.00 | 72 | 1016.6 |
| 20260503023632 | 42 | 145 | 0.0 | 0.0 | 0.00 | 0.00 | 0.00 | 70 | 1016.6 |
| 20260503023129 | 42 | 146 | 0.0 | 0.0 | 0.00 | 0.00 | 0.00 | 69 | 1016.7 |
| 20260503022625 | 42 | 145 | 0.0 | 0.0 | 0.00 | 0.00 | 0.00 | 69 | 1016.5 |
| 20260503022120 | 42 | 145 | 0.0 | 0.0 | 0.00 | 0.00 | 0.00 | 67 | 1016.5 |
| 20260503021617 | 42 | 145 | 0.0 | 0.0 | 0.00 | 0.00 | 0.00 | 68 | 1016.3 |
| 20260503021114 | 42 | 143 | 0.0 | 0.0 | 0.00 | 0.00 | 0.00 | 69 | 1016.5 |
| 20260503020611 | 42 | 136 | 0.0 | 0.0 | 0.00 | 0.00 | 0.00 | 71 | 1016.5 |
| 20260503020108 | 43 | 81 | 0.0 | 0.0 | 0.00 | 0.00 | 0.00 | 69 | 1016.5 |
| 20260503015605 | 43 | 166 | 0.0 | 0.0 | 0.00 | 0.00 | 0.00 | 68 | 1016.2 |
| 20260503015102 | 43 | 167 | 0.0 | 0.0 | 0.00 | 0.00 | 0.00 | 63 | 1016.4 |
| 20260503014557 | 44 | 167 | 0.0 | 0.0 | 0.00 | 0.00 | 0.00 | 61 | 1016.5 |
| 20260503014055 | 44 | 167 | 0.0 | 0.0 | 0.00 | 0.00 | 0.00 | 59 | 1016.4 |
| 20260503013553 | 44 | 167 | 0.0 | 0.0 | 0.00 | 0.00 | 0.00 | 61 | 1016.4 |
| 20260503013050 | 43 | 167 | 0.0 | 0.0 | 0.00 | 0.00 | 0.00 | 64 | 1016.2 |
| 20260503012548 | 43 | 167 | 0.0 | 0.0 | 0.00 | 0.00 | 0.00 | 66 | 1016.2 |
| 20260503012044 | 44 | 167 | 0.0 | 0.0 | 0.00 | 0.00 | 0.00 | 67 | 1016.3 |
| 20260503011540 | 44 | 167 | 0.0 | 0.0 | 0.00 | 0.00 | 0.00 | 68 | 1016.2 |
| 20260503011038 | 44 | 182 | 0.0 | 0.0 | 0.00 | 0.00 | 0.00 | 66 | 1016.3 |
| 20260503010534 | 44 | 183 | 0.0 | 0.0 | 0.00 | 0.00 | 0.00 | 66 | 1016.4 |
| 20260503010032 | 44 | 183 | 0.0 | 0.0 | 0.00 | 0.00 | 0.00 | 66 | 1016.3 |
| 20260503005528 | 45 | 184 | 0.0 | 0.0 | 0.00 | 0.00 | 0.00 | 66 | 1016.3 |
| 20260503005026 | 46 | 214 | 0.0 | 0.0 | 0.00 | 0.00 | 0.00 | 60 | 1016.2 |
| 20260503004522 | 47 | 218 | 0.0 | 0.0 | 0.00 | 0.00 | 0.00 | 58 | 1016.2 |
| 20260503004020 | 47 | 263 | 0.0 | 0.0 | 0.00 | 0.00 | 0.00 | 58 | 1016.2 |
| 20260503003516 | 47 | 228 | 0.0 | 0.0 | 0.00 | 0.00 | 0.00 | 57 | 1015.9 |
| 20260503003014 | 48 | 271 | 0.0 | 0.0 | 0.00 | 0.00 | 0.00 | 56 | 1016.2 |
| 20260503002511 | 48 | 274 | 0.0 | 0.0 | 0.00 | 0.00 | 0.00 | 54 | 1016.0 |
| 20260503002007 | 49 | 229 | 0.0 | 0.0 | 0.00 | 0.00 | 0.00 | 51 | 1016.3 |
| 20260503001504 | 50 | 290 | 0.0 | 0.0 | 0.00 | 0.00 | 0.00 | 48 | 1016.0 |
| 20260503001001 | 50 | 307 | 0.0 | 0.0 | 0.00 | 0.00 | 0.00 | 47 | 1015.9 |
| 20260503000459 | 50 | 300 | 1.0 | 2.0 | 0.00 | 0.00 | 0.00 | 45 | 1016.1 |
| 20260502235956 | 50 | 321 | 1.0 | 1.0 | 0.00 | 0.00 | 0.00 | 46 | 1015.9 |
| 20260502235452 | 50 | 308 | 0.0 | 1.0 | 0.00 | 0.00 | 0.00 | 46 | 1016.1 |
| 20260502234950 | 50 | 306 | 1.0 | 2.0 | 0.00 | 0.00 | 0.00 | 43 | 1015.8 |
| 20260502234446 | 51 | 306 | 2.0 | 2.0 | 0.00 | 0.00 | 0.00 | 44 | 1016.0 |
| 20260502233944 | 51 | 301 | 2.0 | 2.0 | 0.00 | 0.00 | 0.00 | 42 | 1015.8 |
| 20260502233438 | 51 | 312 | 2.0 | 3.0 | 0.00 | 0.00 | 0.00 | 44 | 1015.7 |
| 20260502232936 | 51 | 316 | 2.0 | 2.0 | 0.00 | 0.00 | 0.00 | 45 | 1015.9 |
| 20260502232432 | 51 | 287 | 2.0 | 2.0 | 0.00 | 0.00 | 0.00 | 42 | 1015.8 |
| 20260502231929 | 51 | 347 | 0.0 | 0.0 | 0.00 | 0.00 | 0.00 | 46 | 1015.8 |
| 20260502231426 | 51 | 268 | 0.0 | 0.0 | 0.00 | 0.00 | 0.00 | 44 | 1015.9 |
| 20260502230924 | 51 | 283 | 2.0 | 3.0 | 0.00 | 0.00 | 0.00 | 42 | 1015.9 |
| 20260502230417 | 51 | 286 | 2.0 | 3.0 | 0.00 | 0.00 | 0.00 | 44 | 1015.9 |
| 20260502225915 | 52 | 298 | 5.0 | 11.0 | 0.00 | 0.00 | 0.00 | 44 | 1015.9 |
| 20260502225411 | 52 | 283 | 6.0 | 10.0 | 0.00 | 0.00 | 0.00 | 42 | 1015.9 |
| 20260502224908 | 51 | 297 | 4.0 | 7.0 | 0.00 | 0.00 | 0.00 | 40 | 1015.9 |
| 20260502224403 | 51 | 344 | 2.0 | 2.0 | 0.00 | 0.00 | 0.00 | 42 | 1016.0 |
| 20260502223901 | 51 | 332 | 0.0 | 0.0 | 0.00 | 0.00 | 0.00 | 41 | 1016.0 |
| 20260502223359 | 50 | 287 | 2.0 | 2.0 | 0.00 | 0.00 | 0.00 | 44 | 1016.2 |
| 20260502222856 | 51 | 307 | 2.0 | 2.0 | 0.00 | 0.00 | 0.00 | 42 | 1016.2 |
| 20260502222354 | 51 | 290 | 2.0 | 3.0 | 0.00 | 0.00 | 0.00 | 45 | 1016.0 |
| 20260502221849 | 52 | 300 | 2.0 | 2.0 | 0.00 | 0.00 | 0.00 | 44 | 1016.0 |
| 20260502221346 | 52 | 272 | 3.0 | 4.0 | 0.00 | 0.00 | 0.00 | 44 | 1016.0 |
| 20260502220843 | 52 | 277 | 3.0 | 4.0 | 0.00 | 0.00 | 0.00 | 44 | 1016.0 |
| 20260502220339 | 51 | 298 | 2.0 | 2.0 | 0.00 | 0.00 | 0.00 | 44 | 1015.8 |
| 20260502215835 | 51 | 306 | 2.0 | 3.0 | 0.00 | 0.00 | 0.00 | 43 | 1015.7 |
| 20260502215333 | 51 | 299 | 2.0 | 2.0 | 0.00 | 0.00 | 0.00 | 47 | 1016.0 |
| 20260502214830 | 51 | 218 | 2.0 | 2.0 | 0.00 | 0.00 | 0.00 | 47 | 1015.8 |
| 20260502214326 | 51 | 284 | 2.0 | 3.0 | 0.00 | 0.00 | 0.00 | 43 | 1016.0 |
| 20260502213824 | 51 | 297 | 2.0 | 3.0 | 0.00 | 0.00 | 0.00 | 45 | 1016.0 |
| 20260502213321 | 52 | 307 | 2.0 | 2.0 | 0.00 | 0.00 | 0.00 | 43 | 1015.9 |
| 20260502212819 | 50 | 252 | 1.0 | 2.0 | 0.00 | 0.00 | 0.00 | 48 | 1016.1 |
| 20260502212317 | 51 | 301 | 2.0 | 2.0 | 0.00 | 0.00 | 0.00 | 45 | 1015.9 |
| 20260502211814 | 51 | 307 | 3.0 | 3.0 | 0.00 | 0.00 | 0.00 | 46 | 1016.0 |
| 20260502211309 | 51 | 270 | 2.0 | 3.0 | 0.00 | 0.00 | 0.00 | 46 | 1015.9 |
| 20260502210807 | 51 | 270 | 5.0 | 9.0 | 0.00 | 0.00 | 0.00 | 46 | 1016.0 |
| 20260502210305 | 51 | 277 | 2.0 | 3.0 | 0.00 | 0.00 | 0.00 | 50 | 1016.0 |
| 20260502205802 | 51 | 287 | 4.0 | 7.0 | 0.00 | 0.00 | 0.00 | 46 | 1016.1 |
| 20260502205257 | 51 | 302 | 2.0 | 2.0 | 0.00 | 0.00 | 0.00 | 48 | 1016.1 |
| 20260502204755 | 51 | 300 | 2.0 | 2.0 | 0.00 | 0.00 | 0.00 | 47 | 1016.1 |
| 20260502204252 | 50 | 320 | 2.0 | 2.0 | 0.00 | 0.00 | 0.00 | 46 | 1016.4 |
| 20260502203749 | 50 | 293 | 2.0 | 3.0 | 0.00 | 0.00 | 0.00 | 50 | 1016.1 |
| 20260502203247 | 50 | 300 | 0.0 | 0.0 | 0.00 | 0.00 | 0.00 | 47 | 1016.1 |
| 20260502202741 | 50 | 314 | 2.0 | 3.0 | 0.00 | 0.00 | 0.00 | 49 | 1016.1 |
| 20260502202240 | 50 | 292 | 3.0 | 3.0 | 0.00 | 0.00 | 0.00 | 48 | 1016.4 |
| 20260502201737 | 50 | 286 | 2.0 | 2.0 | 0.00 | 0.00 | 0.00 | 47 | 1016.3 |
| 20260502201233 | 50 | 287 | 2.0 | 2.0 | 0.00 | 0.00 | 0.00 | 49 | 1016.4 |
| 20260502200729 | 49 | 279 | 0.0 | 1.0 | 0.00 | 0.00 | 0.00 | 48 | 1016.4 |
| 20260502200226 | 50 | 313 | 6.0 | 9.0 | 0.00 | 0.00 | 0.00 | 49 | 1016.5 |
| 20260502195724 | 50 | 266 | 2.0 | 3.0 | 0.00 | 0.00 | 0.00 | 49 | 1016.5 |
| 20260502195221 | 49 | 306 | 1.0 | 2.0 | 0.00 | 0.00 | 0.00 | 52 | 1016.6 |
| 20260502194717 | 50 | 313 | 2.0 | 2.0 | 0.00 | 0.00 | 0.00 | 48 | 1016.6 |
| 20260502194214 | 49 | 299 | 2.0 | 2.0 | 0.00 | 0.00 | 0.00 | 48 | 1016.8 |
| 20260502193710 | 50 | 277 | 4.0 | 7.0 | 0.00 | 0.00 | 0.00 | 48 | 1016.8 |
| 20260502193208 | 50 | 313 | 1.0 | 2.0 | 0.00 | 0.00 | 0.00 | 48 | 1016.8 |
| 20260502192702 | 49 | 283 | 1.0 | 2.0 | 0.00 | 0.00 | 0.00 | 53 | 1016.9 |
| 20260502192200 | 48 | 305 | 0.0 | 0.0 | 0.00 | 0.00 | 0.00 | 50 | 1016.5 |
| 20260502191657 | 50 | 311 | 1.0 | 2.0 | 0.00 | 0.00 | 0.00 | 50 | 1016.7 |
| 20260502191154 | 49 | 311 | 2.0 | 4.0 | 0.00 | 0.00 | 0.00 | 51 | 1016.9 |
| 20260502190652 | 49 | 315 | 2.0 | 3.0 | 0.00 | 0.00 | 0.00 | 52 | 1016.8 |
| 20260502190144 | 49 | 278 | 1.0 | 2.0 | 0.00 | 0.00 | 0.00 | 50 | 1017.1 |